Aérodrome :
LOGIN :

S'inscrire | Disclaimer

   EN    FR    IT 

 










Légende :    VFR   VFR Marginal   IFR   IFR Intensif   IFR Très Intensif
Visi : 
Plafond : 
>= 8 km
>= 3000ft
5 à 8 km
1000 à 3000 ft
1500m à 5 km
500 à 1000 ft
800 à 1500m
200 à 500 ft
< 800m
< 200 ft
Symboles :   Orages  Brouillard  Fortes neiges  Fortes précipitations  Vent > 20 kt
SIGMETs :   Divers  Orages  Givrage  Turbulence  Onde Orograph.  Cendres Volcan.







- Altitude de l'aérodrome : 2661 ft
- Code IATA : TEE


DABS - Cheikh Larbi Tebessi

DERNIER METAR :
  • 191400Z 02014KT 8000 FEW040 41/05 Q1018

METARs EXPIRÉS :
  • 191300Z 02012KT 8000 FEW040 41/05 Q1018
  • 191200Z 36014KT 8000 FEW040 40/06 Q1019

TAF TAF DABS
Valide du 19 à 12h jusqu'au 20 à 12h UTC


191100Z 1912/2012 36014KT 9999 FEW040
TEMPO 1913/1920 28014G24KT 5000 -TSRA FEW026CB SCT040
BECMG 1922/1924 04008KT
BECMG 2000/2002 VRB02KT
BECMG 2010/2012 26008KT
Pas de NOTAMs connus pour ce terrain.



MET'MAP, la Météo Aéronautique d'un coup d'oeil ! - Copyright ORBIFLY Décembre 2007 - Disclaimer

ORBIFLY MET'MAP TEAM :

Programmation & Développement : Alexandra Zaïnal
Conception & Développement : Baudouin d'Aumeries
Co-Programmation & Développement : Marc-Olivier Méhu
Soutien technique & logistique : Manuel Goepfert

Contact : metmap@orbifly.com




SOURCES & CREDITS :

   NOAA